[[{"header":{"parameterUnit":"m.s-1","parameterCategory":1,"la1":30.2991,"la2":30.254,"lo1":-89.0895,"lo2":-89.0444,"dy":0.0017,"dx":0.0017,"nx":28,"ny":28,"refTime":"2024-08-08T21:00:00:Z","depth":0,"parameterNumber":2,"parameterNumberName":"U-component_of_WINDS"},"data":[0,0,0,0,0,0,0,0,0,0,0,0,0,0,0,0,0,0,0,0,0,0,0,0,0,0,0,0,0,0,0,0,0,0,0,0,0,0,0,0,0,0,0,0,0,0,0,0,0,0,0,0,0,0,0,0,0,0,1.5499,1.5501,0,1.5691,1.5694,1.5696,1.5737,1.5735,1.5734,1.5732,1.5933,1.5939,1.5946,0,0,0,0,0,0,0,0,0,0,0,0,0,1.5168,1.5173,1.5499,1.5501,1.5504,1.5691,1.5694,1.5696,1.5737,1.5735,1.5733,1.5732,1.593,1.5938,1.5946,0,0,0,0,0,0,0,0,0,0,0,0,0,1.5331,1.5175,1.5498,1.5546,1.5553,1.5691,1.5694,1.5697,1.5737,1.5735,1.5733,1.5731,1.5928,1.5938,1.5947,1.6052,0,0,1.5978,1.5982,0,0,0,0,0,0,0,0,1.5322,1.5343,1.5537,1.5543,1.5551,1.5688,1.565,1.5816,1.5738,1.5667,1.5732,1.573,1.5853,1.5869,1.591,1.6062,1.607,1.5979,1.5985,1.5989,1.5992,0,0,0,0,0,0,0,1.531,1.5335,1.5575,1.554,1.5548,1.5559,1.558,1.5682,1.577,1.5673,1.5677,1.5699,1.5856,1.59,1.5915,1.6073,1.5979,1.5987,1.5994,1.5998,1.6318,1.632,0,0,0,0,0,0,1.529,1.5325,1.5569,1.5581,1.5428,1.5566,1.559,1.5646,1.5769,1.5786,1.57,1.57,1.5884,1.5903,1.5922,1.6051,1.5989,1.5999,1.6004,1.6315,1.6319,1.6321,0,0,0,0,0,0,1.5283,1.5312,1.5561,1.5454,1.5487,1.5574,1.5637,1.5651,1.5695,1.5789,1.5806,1.5729,1.5883,1.5908,1.6019,1.6059,1.6003,1.6012,1.6313,1.6316,1.632,1.6311,0,0,0,0,0,0,1.5273,1.5309,1.5349,1.5455,1.5492,1.5654,1.564,1.5656,1.5712,1.5713,1.582,1.5836,1.5884,1.6004,1.6029,1.6071,1.602,1.6309,1.6314,1.6319,1.6308,1.6314,1.6319,0,0,0,0,0,1.5261,1.534,1.5351,1.538,1.5545,1.5656,1.5678,1.573,1.5715,1.5756,1.5816,1.5833,1.605,1.6015,1.6043,1.609,1.6307,1.6313,1.6318,1.6305,1.6312,1.6318,0,0,0,0,0,0,1.5238,1.5355,1.5368,1.5483,1.5559,1.5663,1.5717,1.5736,1.5819,1.5817,1.5879,1.5903,1.6009,1.6061,1.6019,1.6196,1.6178,1.619,1.6158,1.6166,1.6171,1.6156,1.6028,0,0,0,0,0,1.5246,1.5327,1.5425,1.5517,1.5554,1.5629,1.5679,1.5713,1.5794,1.5827,1.5896,1.5975,1.6061,1.6117,1.6202,1.6316,1.6339,1.6362,1.6367,1.6371,1.638,1.6442,1.6453,1.634,1.634,1.634,0,0,1.5265,1.5338,1.5385,1.5514,1.5577,1.5659,1.5656,1.5743,1.5804,1.5841,1.5948,1.6002,1.6094,1.6206,1.6259,1.6253,1.6416,1.6378,1.6381,1.6388,1.6449,1.646,1.6469,1.6344,1.6343,1.6342,0,0,1.5339,1.5403,1.5486,1.5548,1.5643,1.5692,1.5711,1.5812,1.5848,1.5957,1.5985,1.6059,1.6207,1.6271,1.6323,1.6419,1.6437,1.6445,1.6473,1.6533,1.6542,1.655,1.6583,1.6594,1.6454,1.6454,1.6454,0,1.5349,1.5473,1.5526,1.5611,1.5666,1.5702,1.5786,1.5844,1.5962,1.5999,1.599,1.6174,1.624,1.6366,1.6389,1.6431,1.6454,1.6433,1.6536,1.6545,1.6554,1.6585,1.6598,1.6454,1.6454,1.6454,1.6454,0,1.548,1.5566,1.5621,1.5732,1.5794,1.5878,1.5944,1.6,1.6027,1.6077,1.6187,1.6266,1.6366,1.6399,1.6428,1.6529,1.6522,1.6524,1.6507,1.6564,1.6594,1.6607,1.6455,1.6455,1.6455,1.6455,0,0,1.5546,1.5683,1.5703,1.5752,1.5859,1.5926,1.6011,1.6108,1.6154,1.6234,1.6307,1.643,1.6431,1.649,1.6526,1.6579,1.6648,1.6575,1.6578,1.6584,1.6762,1.6759,1.6772,1.666,1.6663,1.6665,1.6754,0,1.5631,1.5784,1.5833,1.596,1.6039,1.6073,1.6147,1.622,1.6269,1.6343,1.6397,1.6482,1.6479,1.6515,1.6569,1.6628,1.6684,1.6623,1.6728,1.6731,1.6702,1.6789,1.6786,1.6866,1.6767,1.6769,1.677,0,1.5752,1.5831,1.5965,1.6059,1.6094,1.616,1.6252,1.6322,1.6406,1.6437,1.6502,1.6533,1.6623,1.6601,1.6726,1.6683,1.6729,1.6765,1.6769,1.678,1.6753,1.68,1.6893,1.6904,1.679,1.6789,1.6787,0,1.5783,1.5924,1.6022,1.6064,1.6177,1.6222,1.6271,1.6353,1.6407,1.6487,1.6523,1.6613,1.6662,1.6731,1.6786,1.6765,1.6905,1.6889,1.6934,1.6932,1.6961,1.6958,1.706,1.6993,1.6993,1.6993,1.6992,0,1.5872,1.5953,1.6037,1.6097,1.6188,1.6244,1.6333,1.6384,1.6456,1.6526,1.6562,1.6628,1.6697,1.6772,1.6816,1.6911,1.6934,1.6961,1.6972,1.6957,1.6953,1.6987,1.6983,1.6996,1.6995,1.6994,1.6994,0,1.5922,1.5982,1.6091,1.6189,1.6215,1.6277,1.6361,1.642,1.647,1.6559,1.6583,1.6661,1.675,1.6812,1.6928,1.6957,1.706,1.707,1.7031,1.7036,1.7076,1.7071,1.7203,1.7223,1.7143,1.7144,1.7144,0,1.5975,1.6037,1.614,1.6189,1.6238,1.6318,1.6372,1.643,1.6486,1.6584,1.6632,1.6723,1.68,1.6941,1.7008,1.7096,1.7108,1.7149,1.7122,1.7105,1.7107,1.7102,1.7107,1.7152,1.7153,1.7153,1.7154,0,1.606,1.6086,1.6163,1.6251,1.6315,1.6387,1.6459,1.6498,1.6568,1.6629,1.672,1.6779,1.6895,1.6985,1.708,1.7131,1.7154,1.7161,1.7176,1.7161,1.7135,1.7148,1.704,1.7158,1.7158,1.7157,1.7157,1.7157,1.6112,1.6168,1.6249,1.6333,1.6393,1.6459,1.6519,1.6575,1.6652,1.675,1.678,1.6874,1.6955,1.7084,1.7136,1.7211,1.7208,1.723,1.7235,1.7239,1.7238,1.7124,1.7229,1.7229,1.7229,1.7229,1.7229,0,1.6198,1.6251,1.6328,1.6427,1.6493,1.6508,1.6588,1.6642,1.6724,1.6797,1.6871,1.6975,1.7062,1.7135,1.7225,1.7271,1.7283,1.7292,1.7289,1.73,1.7236,1.7213,1.728,1.728,1.728,1.728,1.728,1.728,1.625,1.6344,1.638,1.6505,1.6558,1.6649,1.6694,1.6755,1.6813,1.6926,1.6998,1.7045,1.7118,1.7214,1.7294,1.7314,1.7344,1.735,1.7372,1.7311,1.7305,1.7299,1.7278,1.7357,1.7357,1.7429,1.743,1.7431]},{"header":{"parameterUnit":"m.s-1","parameterCategory":1,"la1":30.2991,"la2":30.254,"lo1":-89.0895,"lo2":-89.0444,"dy":0.0017,"dx":0.0017,"nx":28,"ny":28,"refTime":"2024-08-08T21:00:00:Z","depth":0,"parameterNumber":3,"parameterNumberName":"V-component_of_WINDS"},"data":[0,0,0,0,0,0,0,0,0,0,0,0,0,0,0,0,0,0,0,0,0,0,0,0,0,0,0,0,0,0,0,0,0,0,0,0,0,0,0,0,0,0,0,0,0,0,0,0,0,0,0,0,0,0,0,0,0,0,2.111,2.1109,0,2.1036,2.1035,2.1035,2.0955,2.0954,2.0953,2.0951,2.0877,2.0876,2.0875,0,0,0,0,0,0,0,0,0,0,0,0,0,2.1181,2.118,2.111,2.1109,2.1108,2.1036,2.1035,2.1034,2.0955,2.0954,2.0952,2.0951,2.0877,2.0876,2.0875,0,0,0,0,0,0,0,0,0,0,0,0,0,2.1133,2.118,2.111,2.106,2.1055,2.1037,2.1035,2.1034,2.0955,2.0954,2.0952,2.095,2.0877,2.0876,2.0875,2.0901,0,0,2.0871,2.087,0,0,0,0,0,0,0,0,2.1136,2.1131,2.1068,2.1063,2.1057,2.1003,2.1033,2.0989,2.0956,2.0993,2.0951,2.0949,2.092,2.0915,2.0905,2.0897,2.0894,2.087,2.087,2.0869,2.0869,0,0,0,0,0,0,0,2.114,2.1133,2.1081,2.1067,2.1061,2.1041,2.1032,2.1024,2.0967,2.099,2.0984,2.0976,2.0917,2.0907,2.0903,2.0893,2.087,2.0869,2.0868,2.0868,2.0898,2.0899,0,0,0,0,0,0,2.115,2.1137,2.1083,2.1079,2.1093,2.1041,2.1031,2.1022,2.0967,2.0957,2.0978,2.0973,2.091,2.0905,2.09,2.0923,2.0869,2.0868,2.0867,2.0896,2.0898,2.09,0,0,0,0,0,0,2.1152,2.1146,2.1086,2.1106,2.1097,2.1041,2.1032,2.1022,2.1011,2.0958,2.0947,2.0978,2.0908,2.0902,2.09,2.0919,2.0867,2.0866,2.0894,2.0897,2.0899,2.0972,0,0,0,0,0,0,2.1155,2.1148,2.1157,2.1107,2.1096,2.1088,2.1033,2.1021,2.1009,2.1002,2.0955,2.0946,2.0907,2.0902,2.0899,2.0917,2.0865,2.0892,2.0895,2.0898,2.0967,2.0976,2.0984,0,0,0,0,0,2.1158,2.1182,2.1158,2.1152,2.1107,2.1089,2.1083,2.1037,2.1011,2.1019,2.0985,2.0947,2.0919,2.0903,2.0898,2.0916,2.0891,2.0895,2.0898,2.0964,2.0975,2.0984,0,0,0,0,0,0,2.1236,2.1174,2.1147,2.1156,2.1128,2.1076,2.1085,2.1051,2.1031,2.1025,2.0969,2.0959,2.0963,2.094,2.0923,2.0936,2.0899,2.0902,2.0951,2.0961,2.0969,2.0973,2.0864,0,0,0,0,0,2.1255,2.1246,2.1192,2.1204,2.1192,2.1141,2.1132,2.1099,2.1068,2.1056,2.1022,2.0993,2.0977,2.0968,2.0951,2.0964,2.0951,2.0974,2.0983,2.099,2.0992,2.0993,2.1002,2.0912,2.0912,2.0912,0,0,2.1292,2.1257,2.1255,2.1219,2.1194,2.1185,2.1132,2.1126,2.1118,2.1055,2.105,2.1024,2.0989,2.0993,2.0994,2.0974,2.1014,2.0994,2.1,2.0999,2.0998,2.1007,2.1014,2.0914,2.0914,2.0914,0,0,2.1355,2.1329,2.1335,2.1311,2.1273,2.1239,2.124,2.1193,2.1172,2.1166,2.1118,2.1109,2.1084,2.1059,2.1043,2.1096,2.1059,2.1092,2.1135,2.1137,2.1144,2.115,2.1165,2.1172,2.1095,2.1095,2.1095,0,2.1407,2.1391,2.1343,2.1338,2.1322,2.1265,2.127,2.1249,2.1208,2.1198,2.1176,2.1141,2.1114,2.111,2.1123,2.1113,2.1111,2.1096,2.1147,2.1153,2.1157,2.1171,2.1178,2.1099,2.1099,2.1098,2.1098,0,2.1454,2.1445,2.1454,2.1414,2.14,2.1401,2.1351,2.1343,2.1311,2.1279,2.1272,2.1237,2.121,2.1207,2.1177,2.1199,2.1187,2.1158,2.1119,2.1171,2.1182,2.1188,2.1105,2.1103,2.1102,2.1101,0,0,2.1564,2.1496,2.15,2.148,2.1434,2.1425,2.1422,2.1395,2.1387,2.1361,2.1355,2.1335,2.1306,2.1288,2.1255,2.1257,2.1296,2.1227,2.1225,2.1238,2.1314,2.1334,2.1342,2.1273,2.1274,2.1275,2.1316,0,2.1616,2.1606,2.1562,2.1565,2.1554,2.1499,2.1496,2.1467,2.1437,2.1422,2.1389,2.1373,2.1339,2.1327,2.1327,2.1292,2.131,2.1289,2.1265,2.1265,2.1272,2.1348,2.137,2.1411,2.1321,2.1321,2.1322,0,2.1675,2.1651,2.1653,2.1604,2.1598,2.1596,2.1566,2.1554,2.1519,2.1497,2.1476,2.1438,2.143,2.1396,2.1383,2.1369,2.1357,2.1338,2.1338,2.1332,2.1295,2.1341,2.1423,2.1428,2.133,2.1329,2.1328,0,2.175,2.1719,2.1714,2.17,2.1644,2.1643,2.162,2.1584,2.157,2.1544,2.1533,2.1508,2.1493,2.1474,2.1429,2.1409,2.142,2.1383,2.1399,2.14,2.1401,2.1401,2.148,2.1399,2.1399,2.1399,2.1399,0,2.1811,2.1814,2.1747,2.1744,2.1745,2.1694,2.1696,2.1667,2.1635,2.1625,2.1577,2.1568,2.1511,2.1496,2.1461,2.1453,2.1448,2.1428,2.1418,2.1431,2.1433,2.142,2.1415,2.1401,2.14,2.14,2.14,0,2.1894,2.185,2.1841,2.1789,2.1776,2.1778,2.1733,2.1727,2.1695,2.1682,2.1676,2.1624,2.1603,2.1557,2.1524,2.1501,2.1501,2.1485,2.1512,2.1505,2.1523,2.1521,2.1593,2.1599,2.1518,2.1519,2.152,0,2.1934,2.1934,2.1882,2.1871,2.185,2.1834,2.1819,2.1769,2.1755,2.1714,2.1713,2.1688,2.1665,2.1634,2.1593,2.1566,2.1548,2.1575,2.1544,2.1555,2.1544,2.1543,2.1542,2.1581,2.1583,2.1583,2.1584,0,2.2008,2.1986,2.1966,2.1938,2.1922,2.1897,2.187,2.1865,2.1808,2.1794,2.1772,2.1754,2.172,2.1694,2.1662,2.1637,2.16,2.1595,2.1596,2.1608,2.1622,2.1611,2.1528,2.1593,2.1592,2.1591,2.1591,2.159,2.2068,2.2065,2.2027,2.2006,2.198,2.1956,2.1947,2.1913,2.1893,2.1861,2.1833,2.1812,2.1775,2.1727,2.1704,2.1687,2.1669,2.1672,2.1673,2.1673,2.1677,2.1627,2.1681,2.1681,2.168,2.168,2.168,0,2.2137,2.211,2.2091,2.2055,2.2038,2.2006,2.1974,2.1961,2.1944,2.1913,2.1891,2.1864,2.1839,2.1795,2.1766,2.176,2.1743,2.1754,2.1752,2.1747,2.1697,2.1696,2.1769,2.1769,2.1769,2.1769,2.1769,2.1769,2.2171,2.2163,2.2136,2.2114,2.2086,2.2066,2.205,2.2026,2.2001,2.1973,2.1952,2.1924,2.1887,2.1854,2.1829,2.1817,2.1807,2.1823,2.1806,2.1759,2.1751,2.1743,2.1742,2.1822,2.1823,2.1856,2.1857,2.1857]}]]